Location: *
(53.4003°S, 165.3236°W)
Time: 01:45:12
(UTC+00:00)

SL-24 R/B - RUBIN 2 - Pass Details

Date: 11 December 2023
Orbit: 569 x 1022 km, 64.6° (Epoch: 24 February)

Event Time Altitude Azimuth Distance (km) Brightness Sun altitude
Exits shadow 12:52:47 12° 342° (NNW) 2,266 5.8 -9.4°
Maximum altitude 12:57:41 48° 54° (NE) 958 4.5 -9.1°
Drops below altitude 10° 13:02:20 10° 127° (SE) 2,129 7.5 -8.7°
Sets 13:04:35 0° 133° (SE) 2,990 8.7 -8.6°
